Home > Weather > Bad Nauheim > Past weeks

Flag for Germany Past Weather in Bad Nauheim, Hesse, Germany — Yesterday and Last 2 Weeks

Now
55 °F

Passing clouds.


Feels Like: 55 °F
Forecast: 49 / 67 °F
Wind: 5 mph from South

Location: Frankfurt-M-Flughafen Airport

Current Time: Jun 27, 2016 at 12:37:23 AM

Latest Report: Jun 27, 2016 at 12:20 AM


Visibility: N/A

Pressure: 30.12 "Hg

Humidity: 88%

Dew Point: 52 °F

Location of Bad NauheimLocation

Past Weather in Bad Nauheim — Graph

°F

Bad Nauheim Temperature Yesterday

Maximum temperature yesterday: 73 °F (at 4:20 PM)
Minimum temperature yesterday: 54 °F (at 1:50 AM)
Average temperature yesterday: 63 °F

High & Low Weather Summary for the Past Weeks

 TemperatureHumidityPressure
High93 °F (Jun 23, 4:50 PM)100% (Jun 12, 9:50 PM)30.27 "Hg (Jun 12, 9:50 PM)
Low45 °F (Jun 20, 4:50 AM)30% (Jun 23, 4:50 PM)29.50 "Hg (Jun 14, 2:20 PM)
Average64 °F79%29.91 "Hg
* Reported Jun 11 11:20 PM — Jun 26 11:20 PM, Bad Nauheim, Weather by CustomWeather, © 2016

Note: Actual official high and low records may vary slightly from our data, if they occured in-between our weather recording intervals... More about our weather records

Advertising

Bad Nauheim Weather History for the Previous 24 Hours

Scroll right to see more
 ConditionsComfort  
Time TempWeatherWind HumidityBarometerVisibility
11:20 PM
Sun, Jun 26
59 °FPassing clouds.3 mph77%30.09 "HgN/A
10:50 PM59 °FPassing clouds.7 mph77%30.09 "HgN/A
10:20 PM61 °FPassing clouds.5 mph72%30.09 "HgN/A
9:50 PM63 °FSunny.9 mph68%30.09 "Hg10 mi
9:20 PM63 °FScattered clouds.3 mph77%30.07 "HgN/A
8:50 PM64 °FScattered showers. Scattered clouds.3 mph68%30.07 "HgN/A
8:20 PM66 °FScattered showers. Scattered clouds.6 mph60%30.07 "HgN/A
7:50 PM68 °FScattered showers. Partly sunny.10 mph53%30.07 "HgN/A
7:20 PM70 °FScattered showers. Scattered clouds.9 mph46%30.04 "HgN/A
6:50 PM72 °FPassing clouds.10 mph41%30.04 "HgN/A
6:20 PM72 °FSunny.13 mph41%30.04 "Hg10 mi
5:50 PM73 °FPassing clouds.13 mph41%30.04 "HgN/A
5:20 PM72 °FPassing clouds.13 mph41%30.04 "HgN/A
4:50 PM72 °FPassing clouds.9 mph38%30.04 "HgN/A
4:20 PM73 °FPassing clouds.10 mph41%30.07 "HgN/A
3:50 PM72 °FPassing clouds.12 mph41%30.07 "HgN/A
3:20 PM70 °FPassing clouds.10 mph43%30.07 "HgN/A
2:50 PM70 °FPartly sunny.9 mph50%30.07 "HgN/A
2:20 PM68 °FPartly sunny.10 mph53%30.07 "HgN/A
1:50 PM70 °FPartly sunny.9 mph50%30.07 "HgN/A
1:20 PM66 °FBroken clouds.10 mph52%30.09 "HgN/A
12:50 PM66 °FScattered clouds.10 mph56%30.07 "HgN/A
12:20 PM68 °FScattered clouds.14 mph49%30.07 "HgN/A
11:50 AM66 °FScattered clouds.14 mph56%30.09 "HgN/A
11:20 AM68 °FScattered clouds.10 mph60%30.09 "HgN/A
10:50 AM64 °FScattered clouds.9 mph64%30.09 "HgN/A
10:20 AM64 °FScattered clouds.8 mph64%30.09 "HgN/A
9:50 AM64 °FScattered clouds.7 mph68%30.09 "HgN/A
9:20 AM63 °FScattered clouds.7 mph73%30.09 "HgN/A
8:50 AM63 °FScattered clouds.8 mph77%30.09 "HgN/A
8:20 AM61 °FScattered clouds.8 mph83%30.09 "HgN/A
7:50 AM59 °FPassing clouds.7 mph88%30.09 "HgN/A
7:20 AM57 °FPassing clouds.3 mph88%30.07 "HgN/A
6:50 AM55 °FPassing clouds.6 mph94%30.07 "HgN/A
6:20 AM54 °FPassing clouds.5 mph100%30.07 "HgN/A
5:50 AM54 °FPassing clouds.3 mph94%30.07 "HgN/A
5:20 AM54 °FPassing clouds.3 mph94%30.07 "HgN/A
4:50 AM54 °FPassing clouds.3 mph100%30.07 "HgN/A
4:20 AM54 °FPassing clouds.5 mph100%30.07 "HgN/A
3:50 AM54 °FFog.3 mph94%30.07 "HgN/A
3:20 AM54 °FFog.2 mph94%30.07 "HgN/A
2:50 AM54 °FClear.5 mph100%30.04 "Hg10 mi
2:20 AM55 °FClear.5 mph94%30.07 "Hg10 mi
1:50 AM54 °FPassing clouds.5 mph94%30.07 "HgN/A
1:20 AM55 °FPassing clouds.3 mph94%30.07 "HgN/A
12:50 AM55 °FPassing clouds.6 mph94%30.07 "HgN/A
12:20 AM57 °FPassing clouds.2 mph94%30.07 "HgN/A
Weather by CustomWeather, © 2016

See weather overviewHow to use our weather pages